Doha, Qatar

8:29 PM AST on February 14, 2016 (GMT +0300)
Doha International

Weather History for OTBD - December, 2012

Change the Weather History Date:

Wednesday, December 19, 2012

  Actual Average Record
Temperature  
Mean Temperature 68 °F -  
Max Temperature 73 °F 72 °F 82 °F (1997)
Min Temperature 64 °F 56 °F 51 °F (2004)
Cooling Degree Days 4    
Growing Degree Days 18 (Base 50)    
Moisture  
Dew Point 58 °F    
Average Humidity 67    
Maximum Humidity 88    
Minimum Humidity 43    
Precipitation  
Precipitation 0.00 in 0.02 in - ()
Sea Level Pressure  
Sea Level Pressure 30.18 in    
Wind  
Wind Speed 4 mph ()    
Max Wind Speed 10 mph    
Max Gust Speed -    
Visibility 7.8 miles    
Events      
Averages and records for this station are not official NWS values.
T = Trace of Precipitation, MM = Missing Value Source: Averaged Metar Reports

Daily Weather History Graph

Daily Weather History Graph

Search for Another Location

Airport or City:

Trip Planner

Search our weather history database for the weather conditions in past years. The results will help you decide how hot, cold, wet, or windy it might be!

Date:

Astronomy

Dec. 19, 2012 Rise Set
Actual Time 6:13 AM AST 4:48 PM AST
Civil Twilight 5:48 AM AST 5:13 PM AST
Nautical Twilight 5:20 AM AST 5:41 PM AST
Astronomical Twilight 4:52 AM AST 6:09 PM AST
Moon 10:47 AM AST (12/19) 11:11 PM AST (12/19)
Length of Visible Light 11h 24m
Length of Day
10h 34m
Waxing Crescent, 41% of the Moon is Illuminated
Dec 19
Waxing Crescent
Dec 20
First Quarter
Dec 28
Full
Jan 5
Last Quarter
Jan 11
New

Hourly Weather History & Observations

Time (AST) Temp. Dew Point Humidity Pressure Visibility Wind Dir Wind Speed Gust Speed Precip Events Conditions
12:00 AM 66.2 °F 55.4 °F 68% 30.21 in - Variable 2.3 mph - N/A   Clear
12:30 AM 66.2 °F 55.4 °F 68% 30.18 in - West 3.5 mph - N/A   Clear
1:00 AM 66.2 °F 53.6 °F 64% 30.18 in - WNW 3.5 mph - N/A   Clear
1:30 AM 66.2 °F 53.6 °F 64% 30.18 in - NW 3.5 mph - N/A   Clear
2:00 AM 66.2 °F 53.6 °F 64% 30.18 in - NW 4.6 mph - N/A   Clear
2:30 AM 66.2 °F 53.6 °F 64% 30.18 in - WNW 4.6 mph - N/A   Clear
3:00 AM 65 °F 54 °F 60% 30.19 in 6 mi WNW 4.6 mph - -   Scattered Clouds
3:00 AM 66.2 °F 53.6 °F 64% 30.18 in - WNW 4.6 mph - N/A   Clear
3:30 AM 64.4 °F 53.6 °F 68% 30.18 in - WNW 4.6 mph - N/A   Clear
4:00 AM 64.4 °F 53.6 °F 68% 30.18 in - WNW 3.5 mph - N/A   Clear
4:30 AM 64.4 °F 53.6 °F 68% 30.18 in - Variable 2.3 mph - N/A   Clear
5:00 AM 64.4 °F 53.6 °F 68% 30.18 in - Variable 2.3 mph - N/A   Clear
5:30 AM 64.4 °F 53.6 °F 68% 30.18 in - Calm Calm - N/A   Clear
6:00 AM 64.4 °F 53.6 °F 68% 30.21 in - Variable 2.3 mph - N/A   Clear
7:00 AM 66.2 °F 55.4 °F 68% 30.24 in - Variable 2.3 mph - N/A   Clear
7:30 AM 68.0 °F 55.4 °F 64% 30.24 in - Variable 2.3 mph - N/A   Clear
8:00 AM 68.0 °F 53.6 °F 60% 30.24 in - Variable 2.3 mph - N/A   Clear
8:30 AM 69.8 °F 53.6 °F 56% 30.27 in - WNW 3.5 mph - N/A   Clear
9:00 AM 71 °F 53 °F 43% 30.29 in 9 mi NW 6.9 mph - -   Partly Cloudy
9:30 AM 73.4 °F 53.6 °F 50% 30.27 in - NNW 6.9 mph - N/A   Clear
10:00 AM 71.6 °F 53.6 °F 53% 30.27 in - NW 5.8 mph - N/A   Clear
10:30 AM 71.6 °F 53.6 °F 53% 30.24 in - NNW 6.9 mph - N/A   Clear
11:00 AM 73.4 °F 53.6 °F 50% 30.24 in - NNW 10.4 mph - N/A   Clear
12:00 PM 73.4 °F 55.4 °F 53% 30.21 in - North 9.2 mph - N/A   Clear
12:30 PM 71.6 °F 55.4 °F 57% 30.18 in - North 10.4 mph - N/A   Clear
1:00 PM 71.6 °F 57.2 °F 60% 30.18 in - North 9.2 mph - N/A   Clear
1:30 PM 71.6 °F 57.2 °F 60% 30.18 in - North 10.4 mph - N/A   Clear
2:00 PM 71.6 °F 57.2 °F 60% 30.15 in - North 9.2 mph - N/A   Clear
2:30 PM 71.6 °F 57.2 °F 60% 30.15 in - NNE 6.9 mph - N/A   Clear
3:00 PM 71 °F 58 °F 54% 30.16 in 9 mi ENE 5.8 mph - -   Scattered Clouds
3:00 PM 71.6 °F 57.2 °F 60% 30.15 in - ENE 5.8 mph - N/A   Clear
3:30 PM 71.6 °F 60.8 °F 69% 30.12 in - ENE 8.1 mph - N/A   Clear
4:00 PM 71.6 °F 62.6 °F 73% 30.12 in - East 8.1 mph - N/A   Clear
4:30 PM 71.6 °F 62.6 °F 73% 30.12 in - ENE 3.5 mph - N/A   Clear
5:00 PM 71.6 °F 62.6 °F 73% 30.12 in - NE 4.6 mph - N/A   Clear
5:30 PM 71.6 °F 62.6 °F 73% 30.12 in - NNE 4.6 mph - N/A   Clear
6:00 PM 69.8 °F 62.6 °F 78% 30.15 in - North 4.6 mph - N/A   Clear
6:30 PM 69.8 °F 62.6 °F 78% 30.15 in - North 3.5 mph - N/A   Clear
7:00 PM 69.8 °F 62.6 °F 78% 30.15 in - NNW 4.6 mph - N/A   Clear
7:30 PM 69.8 °F 62.6 °F 78% 30.15 in - North 4.6 mph - N/A   Clear
8:00 PM 69.8 °F 62.6 °F 78% 30.15 in - North 4.6 mph - N/A   Clear
8:30 PM 68.0 °F 62.6 °F 83% 30.15 in - North 3.5 mph - N/A   Clear
9:00 PM 68 °F 63 °F 80% 30.17 in 7 mi 2.3 mph - -   Scattered Clouds
9:00 PM 68.0 °F 62.6 °F 83% 30.15 in - Variable 2.3 mph - N/A   Clear
9:30 PM 68.0 °F 62.6 °F 83% 30.15 in - Variable 2.3 mph - N/A   Clear
10:00 PM 68.0 °F 62.6 °F 83% 30.15 in - West 3.5 mph - N/A   Clear
10:30 PM 68.0 °F 62.6 °F 83% 30.15 in - Calm Calm - N/A   Clear
11:00 PM 66.2 °F 62.6 °F 88% 30.12 in - NNW 4.6 mph - N/A   Clear
11:30 PM 66.2 °F 60.8 °F 83% 30.12 in - North 6.9 mph - N/A   Clear